Total_Precipitation_Accumulation
1.21 1.25 1.35 1.57 1.75 1.77 1.69 1.54 1.39 1.37 1.35 1.32 1.36 1.40 1.39 1.33 1.31 1.38 1.35 1.28 1.29 1.29 1.32 1.35 1.38 1.40 1.42 1.35 1.34 1.36 1.34 1.40 1.40 0.89 0.72 0.76 0.94 1.04 1.03 0.98 1.02 1.07 1.10
1.17 1.21 1.28 1.36 1.51 1.72 1.67 1.52 1.36 1.32 1.34 1.34 1.31 1.33 1.33 1.33 1.34 1.36 1.34 1.28 1.28 1.27 1.27 1.26 1.26 1.30 1.37 1.31 1.27 1.24 1.20 1.15 1.20 1.02 0.78 0.76 0.84 0.93 1.04 1.13 1.11 1.09 1.04
1.17 1.20 1.19 1.25 1.32 1.43 1.55 1.49 1.38 1.30 1.28 1.30 1.33 1.32 1.34 1.36 1.35 1.29 1.31 1.27 1.22 1.23 1.25 1.25 1.21 1.27 1.34 1.29 1.27 1.21 1.11 1.03 1.03 1.04 0.87 0.77 0.82 0.87 1.05 1.22 1.23 1.23 1.17
1.08 1.12 1.12 1.11 1.16 1.20 1.30 1.46 1.46 1.37 1.28 1.22 1.21 1.27 1.36 1.51 1.54 1.49 1.51 1.40 1.28 1.22 1.18 1.15 1.17 1.29 1.32 1.34 1.38 1.28 1.20 1.19 1.18 1.21 1.07 0.93 0.94 0.97 1.16 1.41 1.50 1.46 1.40
0.97 1.02 1.07 1.09 1.16 1.19 1.16 1.27 1.44 1.39 1.24 1.16 1.14 1.19 1.29 1.66 2.04 2.03 1.94 1.68 1.38 1.22 1.13 1.11 1.17 1.32 1.38 1.54 1.67 1.55 1.51 1.59 1.55 1.53 1.41 1.29 1.23 1.27 1.36 1.41 1.57 1.59 1.58
0.86 0.95 1.01 1.10 1.23 1.24 1.18 1.21 1.33 1.40 1.33 1.22 1.15 1.15 1.20 1.49 2.17 2.31 1.99 1.54 1.34 1.22 1.17 1.11 1.11 1.25 1.29 1.41 1.60 1.68 1.74 1.85 1.91 1.88 1.77 1.63 1.38 1.30 1.35 1.49 1.57 1.76 1.83
0.82 0.88 0.95 1.01 1.18 1.24 1.22 1.27 1.31 1.38 1.44 1.42 1.26 1.15 1.11 1.30 1.96 2.11 1.84 1.44 1.28 1.21 1.14 1.13 1.13 1.18 1.25 1.23 1.35 1.41 1.45 1.59 1.81 1.92 1.97 1.58 1.37 1.31 1.54 1.74 1.69 1.77 1.74
0.87 0.90 0.94 0.95 1.01 1.16 1.27 1.29 1.30 1.33 1.36 1.42 1.36 1.25 1.15 1.22 1.77 1.95 1.74 1.41 1.28 1.21 1.11 1.10 1.10 1.13 1.23 1.43 1.40 1.35 1.25 1.26 1.46 1.66 1.92 1.75 1.56 1.59 1.92 2.24 2.31 2.19 1.80
0.95 0.96 0.94 0.90 0.93 1.05 1.16 1.27 1.30 1.31 1.27 1.29 1.29 1.28 1.22 1.20 1.57 1.84 1.66 1.35 1.31 1.22 1.10 1.07 1.09 1.09 1.35 1.62 1.53 1.38 1.20 1.10 1.21 1.54 1.85 1.99 2.04 2.16 2.39 2.71 2.86 2.68 2.22
0.93 0.98 0.90 0.81 0.79 0.83 0.95 1.15 1.26 1.26 1.20 1.21 1.22 1.24 1.17 1.11 1.38 1.66 1.65 1.35 1.26 1.21 1.14 1.09 1.22 1.30 1.49 1.63 1.49 1.45 1.53 1.30 1.15 1.19 1.28 1.39 1.48 1.65 2.04 2.34 2.64 2.72 2.37
0.92 0.97 0.89 0.80 0.78 0.80 0.87 1.04 1.18 1.25 1.24 1.18 1.15 1.16 1.12 1.11 1.23 1.43 1.64 1.44 1.27 1.21 1.18 1.14 1.12 1.36 1.46 1.54 1.56 1.52 1.75 1.64 1.36 1.36 1.32 1.26 1.25 1.36 1.57 1.88 2.29 2.63 2.64
0.94 0.93 0.91 0.88 0.84 0.85 0.89 1.02 1.15 1.22 1.29 1.24 1.14 1.12 1.11 1.11 1.21 1.35 1.53 1.56 1.43 1.22 1.11 1.00 1.06 1.29 1.38 1.50 1.48 1.57 1.70 1.63 1.43 1.38 1.29 1.23 1.24 1.29 1.38 1.55 1.88 2.14 2.26
0.91 0.93 0.92 0.92 0.90 0.91 0.95 1.03 1.15 1.22 1.27 1.25 1.17 1.11 1.09 1.04 1.19 1.45 1.39 1.42 1.46 1.25 1.10 1.18 1.26 1.36 1.37 1.30 1.37 1.46 1.45 1.38 1.46 1.45 1.30 1.21 1.22 1.34 1.40 1.45 1.59 1.86 2.02
0.80 0.89 0.88 0.91 0.96 0.99 1.02 1.05 1.13 1.23 1.29 1.20 1.14 1.06 1.01 1.03 1.23 1.40 1.34 1.31 1.39 1.35 1.28 1.33 1.40 1.38 1.28 1.19 1.23 1.24 1.19 1.29 1.44 1.43 1.29 1.17 1.15 1.26 1.41 1.51 1.61 1.75 1.96
0.72 0.83 0.90 0.94 1.00 1.03 1.05 1.10 1.17 1.18 1.32 1.28 1.15 1.08 1.09 1.20 1.39 1.51 1.45 1.37 1.36 1.37 1.46 1.52 1.44 1.35 1.31 1.20 1.09 1.04 1.08 1.24 1.36 1.27 1.25 1.22 1.19 1.22 1.29 1.40 1.62 1.76 1.91
0.73 0.79 0.89 0.96 0.98 0.97 0.95 1.02 1.19 1.21 1.25 1.21 1.15 1.12 1.07 1.24 1.40 1.45 1.52 1.54 1.55 1.61 1.65 1.56 1.34 1.19 1.14 1.11 1.08 1.06 1.02 1.05 1.11 1.19 1.23 1.23 1.23 1.25 1.27 1.29 1.45 1.70 1.84
0.73 0.78 0.85 0.93 0.92 0.88 0.84 0.85 0.97 1.13 1.23 1.21 1.18 1.13 1.13 1.22 1.27 1.35 1.48 1.58 1.62 1.61 1.53 1.31 1.12 1.05 1.02 1.00 0.99 0.98 0.95 0.90 0.94 1.04 1.10 1.14 1.20 1.24 1.27 1.28 1.34 1.49 1.67
0.70 0.80 0.84 0.88 0.90 0.87 0.85 0.84 0.86 0.95 1.07 1.14 1.18 1.14 1.12 1.17 1.22 1.30 1.45 1.56 1.61 1.46 1.27 1.16 1.08 1.00 0.98 1.01 1.01 1.00 0.96 0.92 0.95 0.98 1.01 1.03 1.12 1.22 1.24 1.23 1.26 1.40 1.55
0.73 0.78 0.78 0.83 0.87 0.89 0.88 0.89 0.91 0.94 0.98 1.03 1.08 1.21 1.29 1.27 1.29 1.35 1.37 1.32 1.27 1.19 1.12 1.10 1.06 1.04 1.02 1.02 1.04 1.04 1.03 1.01 0.97 0.97 0.98 0.98 1.00 1.10 1.14 1.11 1.15 1.29 1.46
0.75 0.85 0.83 0.84 0.87 0.90 0.91 0.95 1.00 1.03 1.04 1.02 1.03 1.13 1.32 1.46 1.44 1.40 1.29 1.19 1.17 1.08 1.03 1.07 1.07 1.07 1.07 1.08 1.08 1.09 1.07 1.01 0.97 0.97 0.94 0.93 0.95 1.00 1.04 1.06 1.12 1.20 1.26
0.71 0.78 0.86 0.84 0.83 0.86 0.91 0.95 1.00 1.06 1.08 1.02 0.97 1.06 1.32 1.43 1.34 1.19 1.14 1.15 1.21 1.20 1.14 1.11 1.09 1.09 1.09 1.10 1.11 1.08 1.05 0.98 0.91 0.91 0.91 0.90 0.93 0.97 0.97 1.00 1.05 1.11 1.19
0.71 0.75 0.77 0.79 0.83 0.88 0.94 0.96 1.01 1.07 1.06 1.03 1.01 1.08 1.23 1.18 1.17 1.15 1.12 1.12 1.18 1.24 1.24 1.23 1.18 1.12 1.13 1.17 1.19 1.16 1.05 0.94 0.86 0.86 0.89 0.89 0.89 0.91 0.93 0.96 0.96 1.00 1.09
0.75 0.78 0.80 0.78 0.79 0.92 0.98 0.96 0.99 1.04 1.07 1.06 1.07 1.09 1.12 1.11 1.11 1.14 1.18 1.18 1.23 1.25 1.21 1.21 1.19 1.13 1.06 1.07 1.09 1.15 1.13 0.98 0.88 0.90 0.98 0.97 0.92 0.91 0.93 0.96 0.94 0.97 1.02
0.79 0.83 0.83 0.80 0.80 0.86 0.92 0.95 0.98 1.01 1.05 1.08 1.09 1.11 1.12 1.12 1.11 1.13 1.19 1.25 1.28 1.25 1.19 1.18 1.14 1.09 1.03 1.01 0.98 0.97 0.97 0.98 1.01 1.01 1.01 1.03 0.98 0.92 0.94 0.97 0.94 0.96 1.02
0.82 0.82 0.83 0.82 0.83 0.85 0.89 0.94 0.96 0.98 1.01 1.05 1.08 1.10 1.12 1.13 1.14 1.14 1.16 1.19 1.20 1.18 1.12 1.11 1.10 1.09 1.05 0.99 0.94 0.92 0.99 1.06 1.11 1.19 1.22 1.15 1.03 0.95 0.97 0.97 0.94 0.94 0.99
0.78 0.79 0.81 0.84 0.86 0.87 0.93 0.99 0.98 0.97 1.03 1.04 1.06 1.09 1.12 1.14 1.14 1.10 1.08 1.09 1.11 1.07 1.04 1.02 1.01 1.04 1.04 1.01 0.99 1.04 1.11 1.07 1.08 1.16 1.26 1.26 1.09 0.95 0.95 0.98 0.93 0.94 0.97